Mt. Clemens, MI

2:06 AM EDT on April 24, 2017 (GMT -0400)
Selfridge Angb

Weather History for KMTC - March, 2013

Change the Weather History Date:

Thursday, March 7, 2013

  Actual Average Record
Temperature  
Mean Temperature 30 °F -  
Max Temperature 35 °F 40 °F 70 °F (1987)
Min Temperature 26 °F 21 °F 2 °F (1978)
Degree Days  
Heating Degree Days 34    
Moisture  
Dew Point 29 °F    
Average Humidity 87    
Maximum Humidity 100    
Minimum Humidity 70    
Precipitation  
Precipitation 0.02 in - - ()
Sea Level Pressure  
Sea Level Pressure 30.30 in    
Wind  
Wind Speed 4 mph (NNW)    
Max Wind Speed 14 mph    
Max Gust Speed -    
Visibility 8 miles    
Events Rain , Snow    
Averages and records for this station are not official NWS values.
T = Trace of Precipitation, MM = Missing Value Source: NWS Daily Summary

Daily Weather History Graph

Daily Weather History Graph

Search for Another Location

Airport or City:

Trip Planner

Search our weather history database for the weather conditions in past years. The results will help you decide how hot, cold, wet, or windy it might be!

Date:

Astronomy

Mar. 07, 2013 Rise Set
Actual Time 6:56 AM EST 6:28 PM EST
Civil Twilight 6:28 AM EST 6:56 PM EST
Nautical Twilight 5:55 AM EST 7:29 PM EST
Astronomical Twilight 5:23 AM EST 8:02 PM EST
Moon 4:00 AM EST (3/7) 2:10 PM EST (3/7)
Length of Visible Light 12h 28m
Length of Day
11h 32m
Waning Crescent, 20% of the Moon is Illuminated
Mar 7
Waning Crescent
Mar 11
New
Mar 19
First Quarter
Mar 27
Full
Apr 3
Last Quarter

Hourly Weather History & Observations

Time (EST) Temp. Windchill Dew Point Humidity Pressure Visibility Wind Dir Wind Speed Gust Speed Precip Events Conditions
12:55 AM 32.7 °F - 29.1 °F 87% 30.22 in 10.0 mi Calm Calm - 0.00 in Snow Light Snow
1:00 AM 32.0 °F - 28.4 °F 87% 30.22 in 10.0 mi Calm Calm - N/A   Mostly Cloudy
1:03 AM 32.0 °F 28.7 °F 28.4 °F 87% 30.22 in 10.0 mi NW 3.5 mph - N/A Snow Light Snow
1:55 AM 32.7 °F - 29.5 °F 88% 30.22 in 10.0 mi Calm Calm - 0.00 in Snow Light Snow
2:22 AM 32.0 °F - 30.2 °F 93% 30.22 in 10.0 mi Calm Calm - N/A   Overcast
2:55 AM 32.4 °F - 30.0 °F 91% 30.22 in 10.0 mi Calm Calm - 0.00 in   Overcast
3:14 AM 32.0 °F 28.7 °F 30.2 °F 93% 30.22 in 10.0 mi WNW 3.5 mph - N/A   Overcast
3:15 AM 32.0 °F 28.7 °F 30.2 °F 93% 30.22 in 10.0 mi WNW 3.5 mph - N/A   Overcast
3:19 AM 32.0 °F 28.7 °F 30.2 °F 93% 30.22 in 10.0 mi WNW 3.5 mph - N/A   Overcast
3:55 AM 32.4 °F 27.9 °F 30.9 °F 94% 30.22 in 10.0 mi NW 4.6 mph - 0.00 in Snow Light Snow
4:55 AM 32.0 °F 26.4 °F 30.2 °F 93% 30.24 in 10.0 mi NW 5.8 mph - N/A Snow Light Snow
5:55 AM 32.0 °F 26.4 °F 30.2 °F 93% 30.25 in 10.0 mi NNW 5.8 mph - N/A Snow Light Snow
6:20 AM 32.0 °F 26.4 °F 28.4 °F 87% 30.22 in 7.0 mi NNW 5.8 mph - N/A   Overcast
6:55 AM 30.2 °F 25.4 °F 28.4 °F 93% 30.27 in 7.0 mi NNW 4.6 mph - N/A   Overcast
7:55 AM 32.0 °F 27.5 °F 30.2 °F 93% 30.28 in 6.0 mi NNW 4.6 mph - N/A   Overcast
8:29 AM 32.0 °F 25.6 °F 30.2 °F 93% 30.25 in 6.0 mi NNW 6.9 mph - N/A Snow Light Snow
8:55 AM 33.8 °F 27.7 °F 30.2 °F 87% 30.30 in 5.0 mi NNW 6.9 mph - N/A Snow Light Snow
9:55 AM 33.8 °F 27.7 °F 32.0 °F 93% 30.32 in 4.0 mi NNW 6.9 mph - N/A Snow Light Snow
10:22 AM 33.8 °F 29.6 °F 32.0 °F 93% 30.28 in 2.0 mi NNW 4.6 mph - N/A Snow Light Snow
10:30 AM 33.8 °F 28.6 °F 32.0 °F 93% 30.29 in 1.5 mi NW 5.8 mph - N/A Snow Light Snow
10:47 AM 33.8 °F 28.6 °F 32.0 °F 93% 30.29 in 2.0 mi NW 5.8 mph - N/A Snow Light Snow
10:55 AM 33.8 °F 26.4 °F 33.8 °F 100% 30.33 in 2.0 mi NNW 9.2 mph - N/A Rain , Snow Light Rain
11:29 AM 33.8 °F 27.7 °F 33.8 °F 100% 30.29 in 1.0 mi NNW 6.9 mph - N/A Snow Light Snow
11:35 AM 33.8 °F 28.6 °F 33.8 °F 100% 30.29 in 2.0 mi NW 5.8 mph - N/A Snow Light Snow
11:41 AM 33.8 °F 26.4 °F 33.8 °F 100% 30.29 in 3.0 mi NW 9.2 mph - N/A Snow Light Snow
11:55 AM 33.8 °F 27.7 °F 33.8 °F 100% 30.34 in 3.0 mi NW 6.9 mph - N/A Snow Light Snow
12:30 PM 35.6 °F 27.5 °F 32.0 °F 87% 30.30 in 4.0 mi North 11.5 mph - N/A Rain , Snow Light Snow
12:55 PM 35.6 °F 27.5 °F 32.0 °F 87% 30.34 in 6.0 mi North 11.5 mph - N/A Snow Light Snow
12:59 PM 35.6 °F 27.5 °F 32.0 °F 87% 30.29 in 6.0 mi North 11.5 mph - N/A   Overcast
1:19 PM 35.6 °F 26.6 °F 30.2 °F 81% 30.29 in 7.0 mi NNW 13.8 mph - N/A   Overcast
1:55 PM 35.6 °F 28.6 °F 28.4 °F 75% 30.33 in 10.0 mi NNW 9.2 mph - N/A   Overcast
2:07 PM 35.6 °F 28.0 °F 28.4 °F 75% 30.28 in 10.0 mi North 10.4 mph - N/A   Overcast
2:55 PM 35.6 °F 29.2 °F 28.4 °F 75% 30.34 in 12.0 mi NW 8.1 mph - N/A   Overcast
3:55 PM 33.8 °F 25.8 °F 26.6 °F 75% 30.35 in 12.0 mi North 10.4 mph - N/A   Overcast
4:55 PM 33.8 °F 25.8 °F 26.6 °F 75% 30.37 in 12.0 mi North 10.4 mph - N/A   Overcast
5:55 PM 33.8 °F 27.7 °F 24.8 °F 70% 30.37 in 12.0 mi North 6.9 mph - N/A   Overcast
6:04 PM 33.8 °F 28.6 °F 26.6 °F 75% 30.33 in 12.0 mi Variable 5.8 mph - N/A   Overcast
6:55 PM 32.0 °F 25.6 °F 24.8 °F 75% 30.39 in 12.0 mi NNW 6.9 mph - N/A   Overcast
7:55 PM 32.0 °F 26.4 °F 24.8 °F 75% 30.41 in 12.0 mi NNW 5.8 mph - N/A   Overcast
8:55 PM 32.0 °F 26.4 °F 24.8 °F 75% 30.41 in 12.0 mi North 5.8 mph - N/A   Overcast
9:55 PM 30.2 °F 25.4 °F 23.0 °F 75% 30.41 in 12.0 mi NNW 4.6 mph - N/A   Partly Cloudy
10:55 PM 26.6 °F 21.2 °F 21.2 °F 80% 30.42 in 12.0 mi NNW 4.6 mph - N/A   Partly Cloudy
11:55 PM 27.9 °F 24.0 °F 19.2 °F 70% 30.41 in 10.0 mi NW 3.5 mph - N/A   Clear